User: anonymous   Login
Location: Unspecified
(0.0000°N, 0.0000°E)
Time: 20:49:55
(UTC+00:00)
Language:

Nimbus 3 - Orbit

View from above orbital plane
View from above orbital plane
View from above satellite
View from above satellite

Ground track
Ground track

The orbit data is extracted from the following two-line orbital elements,

1 03890U 69037A   18141.40109168 -.00000042  00000-0  40842-5 0  9999
2 03890  99.9367  52.0549 0038955 309.8506 159.6125 13.42520337405548
Epoch (UTC): 21 May 2018 09:37:34
Eccentricity: 0.0038955
inclination: 99.9367°
perigee height: 1071 km
apogee height: 1129 km
right ascension of ascending node: 52.0549°
argument of perigee: 309.8506°
revolutions per day: 13.42520337
mean anomaly at epoch: 159.6125°
orbit number at epoch: 40554

The dashed part of the orbit path shows where the satellite is in the earth's shadow,  

DLR